This is the latest recevied weather packets stored in our database for station/object HB9TJR-3. If no packets are shown the sender has not sent any weather packets the latest 10 day(s).
| Time | Temp. | Humidity | Pressure | Rain* | Wind** | Luminosity | Snow |
|---|---|---|---|---|---|---|---|
| 1778162854 | 8.33° C | 97% | 863.8 hPa | 0 mm | - | - | - |
| 1778161894 | 7.78° C | 96% | 863.8 hPa | 0 mm | - | - | - |
| 1778160933 | 7.78° C | 93% | 864 hPa | 0 mm | - | - | - |
| 1778159973 | 8.33° C | 92% | 863.9 hPa | 0 mm | - | - | - |
| 1778159014 | 8.89° C | 95% | 864 hPa | 0 mm | - | - | - |
| 1778158054 | 8.33° C | 91% | 863.9 hPa | 0 mm | - | - | - |
| 1778157094 | 8.89° C | 90% | 863.9 hPa | 0 mm | - | - | - |
| 1778156133 | 8.33° C | 90% | 863.9 hPa | 0 mm | - | - | - |
| 1778155174 | 7.78° C | 91% | 863.8 hPa | 0 mm | - | - | - |
| 1778154214 | 8.33° C | 90% | 863.8 hPa | 0 mm | - | - | - |
| 1778153254 | 8.33° C | 88% | 863.7 hPa | 0 mm | - | - | - |
| 1778152294 | 7.78° C | 93% | 863.8 hPa | 0 mm | - | - | - |
| 1778151333 | 7.78° C | 90% | 863.8 hPa | 0 mm | - | - | - |
| 1778150374 | 7.78° C | 92% | 863.8 hPa | 0 mm | - | - | - |
| 1778149414 | 7.22° C | 90% | 863.7 hPa | 0 mm | - | - | - |
| 1778148455 | 7.78° C | 92% | 863.6 hPa | 0 mm | - | - | - |
| 1778147494 | 7.78° C | 88% | 863.6 hPa | 0 mm | - | - | - |
| 1778146533 | 7.78° C | 91% | 863.7 hPa | 0 mm | - | - | - |
| 1778145574 | 7.78° C | 92% | 863.6 hPa | 0 mm | - | - | - |
| 1778144614 | 7.78° C | 91% | 863.4 hPa | 0 mm | - | - | - |
| 1778143654 | 7.78° C | 92% | 863.4 hPa | 0 mm | - | - | - |
| 1778142694 | 7.78° C | 90% | 863.3 hPa | 0 mm | - | - | - |
| 1778141733 | 7.22° C | 92% | 863.3 hPa | 0 mm | - | - | - |
| 1778140774 | 7.22° C | 89% | 863.1 hPa | 0 mm | - | - | - |
| 1778139814 | 7.22° C | 91% | 863.1 hPa | 0 mm | - | - | - |
* Rain latest hour (hover to see other rain measurements)
** Current wind speed in m/s (hover to see current wind gust speed)